Weather in Ust'ye

Russia / Tula Oblast     53°39′11″N   38°47′10″E
temp.,
°C
wind,
m/s
gust,
m/s
humid.,
%
clouds,
%
prec.,
mm/h
press.,
hPa
HPBL,
m
12 may, wed
wed1200:00+8sse22874 0.0 102638
03:00+6ese22860 0.0 102625
06:00+7ene238465 0.0 102688
09:00+12ne4669100 0.0 1025645
12:00+8nne2297100 6.9 1023145
15:00+9wsw2296100 9.6 1021215
18:00+10e118842 1.3 1020310
21:00+8ese34940 1.3 102169
13 may, thu
thu1300:00+7e48967 0.0 1020160
03:00+7e4109597 0.0 1020196
06:00+9ese51192100 0.1 1019256
09:00+13e477990 0.3 1018300
12:00+17ese4563100 0.0 1016933
15:00+19se685916 0.1 10141749
18:00+11nw3486100 0.9 1016223
21:00+10sse1191100 0.9 101710
14 may, fri
fri1400:00+9s2292100 0.0 101811
03:00+9ese229059 0.0 101815
06:00+10e3691100 0.0 1018151
09:00+16ese58787 0.0 1017400
12:00+21se6869100 0.3 10161170
15:00+23sse696012 0.3 10141567
18:00+21sse61271100 1.6 1013375
21:00+18sse51387100 2.8 1012267
15 may, sat
sat1500:00+17sse4119399 2.6 1012206
03:00+17se3383100 2.7 101128
06:00+15ene2288100 0.8 101133
09:00+17ese61085100 0.9 1010216
12:00+20se357014 0.6 1010422
15:00+23ssw69625 1.1 10101539
18:00+20ssw5974100 0.8 1010526
21:00+16ssw3108899 1.0 1011208
16 may, sun
sun1600:00+14ssw399399 0.0 1012211
03:00+12sw38960 0.0 1013213
06:00+12wsw38902 0.0 1015249
09:00+16w46680 0.0 1016681
12:00+19wsw34595 0.0 10161214
15:00+21wsw345488 0.0 10161423
18:00+20w2265100 0.0 1016927
21:00+16n1173100 0.0 101611